Regional Weather Roundup
Issued by NWS

Home | Current Version | Previous Version | Text Only | Print | Product List | Glossary Off
Versions: 1 2 3 4 5 6 7 8 9 10 11 12 13 14 15 16 17 18 19 20 21 22 23 24 25 26 27 28 29 30 31 32 33 34 35 36 37 38 39 40 41 42 43 44 45 46 47 48 49 50

000
ASUS43 KIND 301909
RWRIN

WEATHER ROUNDUP FOR INDIANA
NATIONAL WEATHER SERVICE INDIANAPOLIS IN
300 PM EDT TUE JUN 30 2015

NOTE: "FAIR" INDICATES FEW OR NO CLOUDS BELOW 12,000 FEET WITH NO
SIGNIFICANT WEATHER AND/OR OBSTRUCTIONS TO VISIBILITY.

* - STATION DOES NOT REPORT WEATHER SUCH AS PRECIPITATION OR FOG.

+ - STATION NOT QUALITY CONTROLLED BY THE NATIONAL WEATHER SERVICE.
    USE DATA WITH CAUTION...ESPECIALLY DEWPOINT AND RELATIVE
    HUMIDITY OBSERVATIONS.

INZ001>003-010>013-019-020-302000-
NORTHWEST INDIANA

CITY           SKY/WX    TMP DP  RH WIND       PRES   REMARKS
GARY /AIRPORT/ MOSUNNY  N/A N/A N/A N8        29.82R
KNOX *+        PTSUNNY   75  61  60 W9        29.79F
LA PORTE +     SUNNY     75  62  63 NW7       29.82S
MICHIGAN CITY+ SUNNY     70  61  73 N8        29.83S
MONTICELLO +   MOSUNNY   78  63  58 NW10G16   29.80S
RENSSELAER +   MOSUNNY   77  64  65 W7        29.81F
VALPARAISO     MOSUNNY   77  60  55 N8        29.81S

$$

LMZ046-743>745-302000-
SOUTHERN LAKE MICHIGAN

STATION/POSITION TIME  TEMP    WIND        PRES    WAVE
                       AIR SEA DIR/SP/G            HT
                 (UTC) (F)     (DEG/KT/KT) (MB)    (FT)
BURNS HARBOR     1900   66      50/ 13/ 14 1010.5S
MICHIGAN CITY    1900   62      10/ 13/ 14   N/A
5NW MICH CITY    1900   63 65   40/ 10/ 12   N/A     1

$$

INZ004-005-014>016-021>024-302000-
NORTH CENTRAL INDIANA

CITY           SKY/WX    TMP DP  RH WIND       PRES   REMARKS
ELKHART        MOSUNNY   75  59  57 W12       29.81R
GOSHEN         PTSUNNY   74  63  68 W13       29.79F
LOGANSPORT +   MOSUNNY   79  54  41 W10       29.81F
PERU/GRISSOM   MOSUNNY   78  62  58 W14       29.79F
ROCHESTER +    MOSUNNY   79  63  57 W8        29.80F
SOUTH BEND     SUNNY     73  61  65 NW16      29.82R
WARSAW +         N/A     73  63  68 NW3       29.80F

$$

INZ006>009-017-018-025>027-302000-
NORTHEAST INDIANA

CITY           SKY/WX    TMP DP  RH WIND       PRES   REMARKS
ANGOLA *+      MOSUNNY   73  64  73 W9        29.79F
AUBURN +       PTSUNNY   72  63  73 W5        29.81F
FORT WAYNE     PTSUNNY   78  65  63 W12       29.79F
HUNTINGTON +   MOSUNNY   78  64  62 W10       29.79F

$$

INZ028-029-035-036-043>045-051>053-302000-
WEST CENTRAL INDIANA

CITY           SKY/WX    TMP DP  RH WIND       PRES   REMARKS
CRAWFORDSVL +  MOSUNNY   77  60  54 W9        29.83F
GREENCASTLE +  MOSUNNY   79  63  57 W5        29.84F
LAFAYETTE      MOSUNNY   78  62  57 W10       29.80F
TERRE HAUTE    MOSUNNY   82  67  60 W12       29.83F

$$

INZ030>032-037>040-046>048-054>057-064-065-302000-
CENTRAL INDIANA

CITY           SKY/WX    TMP DP  RH WIND       PRES   REMARKS
ANDERSON       MOSUNNY   77  54  44 W12G17    29.82F
CP ATTERBURY + MOSUNNY   81  64  57 W12       29.82F
FISHERS *+     MOSUNNY   79  66  65 NW14G20   29.82F
FRANKFORT +    MOSUNNY   80  64  58 W14       29.83F
GREENWOOD *+   PTSUNNY   81  63  54 W13       29.83F
INDIANAPOLIS   MOSUNNY   80  62  54 W15       29.81F
-EAGLE CREEK   MOSUNNY   79  61  53 W14G20    29.81F
KOKOMO *+      MOSUNNY   79  64  61 W13       29.80F
MARION +       PTSUNNY   76  61  59 W12G18    29.81F
MT COMFORT *+  SUNNY     81  50  34 W13       29.82F
SHELBYVILLE    MOSUNNY   82  65  56 W9        29.81F
ZIONSVILLE +   SUNNY     80  61  53 W13       29.83F

$$

INZ033-034-041-042-049-050-058-059-302000-
EAST CENTRAL INDIANA

CITY           SKY/WX    TMP DP  RH WIND       PRES   REMARKS
MUNCIE         MOSUNNY   78  63  59 W10G20    29.81F

$$

INZ060-061-067>069-081>083-085>088-302000-
SOUTHWEST INDIANA

CITY           SKY/WX    TMP DP  RH WIND       PRES   REMARKS
EVANSVILLE     PTSUNNY   83  67  58 W9        29.87F
WASHINGTON +   MOSUNNY   83  64  53 W12G17    29.84F

$$

INZ062-063-066-070>080-084-089>092-302000-
SOUTH CENTRAL AND SOUTHEAST INDIANA

CITY           SKY/WX    TMP DP  RH WIND       PRES   REMARKS
BLOOMINGTON    PTSUNNY   80  69  69 NW6       29.84F THUNDER
MADISON *+     MOSUNNY   81  63  54 SW9       29.85F
NORTH VERNON + MOSUNNY   77  75  94 CALM      29.83F
SEYMOUR +      MOSUNNY   82  66  57 W12       29.81F

$$



USA.gov is the U.S. government's official web portal to all federal, state and local government web resources and services.